Wind_Speed
22 20 19 22 30 35 33 31 32 33 35 34 32 34 37 36 35 35 32 29 27 26 26 26 24 22 21 19 19 16 13 13 16 18 16 15 18 17 14 11 8 3 4 9 14 16 16 17 16 17 17 15 13 12 12 10 8 6 7 7 6 4 4 5 4 3 3 2 2 4 5 5 8 9 10 8 6 9 11 11 11 12 13 13 12
24 24 25 30 34 33 32 33 32 32 34 34 32 34 36 36 37 36 33 31 29 28 27 25 22 21 20 18 18 16 13 11 14 17 16 14 16 17 13 10 8 3 3 7 12 16 17 17 18 19 18 16 14 14 13 11 9 7 7 9 8 5 4 5 5 4 3 3 3 4 4 5 9 9 7 5 5 9 11 11 11 11 12 12 11
25 29 31 34 33 30 31 34 34 34 35 33 32 34 35 36 36 36 35 33 30 29 28 25 22 19 17 16 17 16 12 10 12 15 15 14 14 15 13 9 7 4 1 5 11 15 17 18 20 19 18 16 15 15 14 12 10 8 8 10 9 6 5 6 5 5 4 2 3 5 5 6 9 9 6 5 7 9 11 11 12 12 11 11 11
25 30 33 34 33 31 31 31 32 34 34 33 32 32 34 36 36 36 36 34 32 30 28 25 21 18 16 16 17 16 11 9 10 13 14 13 12 13 12 9 6 4 1 3 9 14 17 20 21 20 18 17 16 16 15 13 11 8 9 11 11 8 6 6 6 5 4 3 4 7 8 7 9 7 6 8 10 10 10 10 11 12 11 11 12
25 31 33 32 32 33 32 31 30 30 32 32 32 31 32 34 35 36 35 34 33 31 28 25 22 19 18 19 19 17 12 8 9 11 13 12 10 10 11 9 5 2 1 3 8 13 17 20 20 19 18 18 17 16 15 13 11 9 10 12 12 10 7 6 6 6 4 4 6 9 10 9 7 4 4 8 11 10 9 10 11 10 11 12 11
22 28 32 31 33 35 33 29 26 27 28 28 28 29 30 32 33 34 33 33 32 31 29 26 24 22 20 20 21 19 13 10 10 9 10 12 10 9 9 9 6 2 1 3 7 12 16 19 20 19 19 19 18 17 16 13 11 10 11 13 14 11 8 6 6 7 6 6 7 7 8 9 5 4 5 7 9 10 9 10 10 10 10 11 11
17 22 28 31 32 33 33 30 28 28 27 27 27 28 28 28 30 31 33 33 32 32 30 27 24 23 22 22 22 20 14 13 12 8 8 10 9 8 8 8 7 2 3 3 6 10 15 18 19 20 20 20 19 17 16 13 12 11 11 14 15 12 9 7 6 8 7 6 7 7 9 10 7 6 7 7 7 9 10 10 10 9 9 10 11
15 19 25 30 31 32 33 33 33 34 32 30 30 30 28 25 27 29 31 32 32 30 30 28 23 22 23 23 23 20 16 15 13 9 7 8 9 8 7 7 7 3 3 5 6 8 13 16 18 19 20 20 19 17 15 13 12 12 12 15 15 12 9 8 8 9 8 7 7 7 10 11 8 7 8 8 7 8 8 9 9 9 7 8 10
14 18 24 29 31 32 31 31 33 33 31 30 30 31 29 26 27 27 28 30 30 29 29 27 21 21 25 24 22 20 17 16 14 10 7 7 8 8 7 6 6 4 1 5 7 8 10 14 16 18 20 20 19 17 15 13 13 12 14 16 15 13 10 9 10 9 9 8 7 8 10 10 9 9 9 9 9 9 8 8 10 10 8 7 9
13 18 25 29 29 29 28 27 29 28 27 27 28 30 28 26 25 25 26 27 28 29 28 27 25 23 27 25 22 21 19 17 14 11 7 6 7 8 7 6 5 5 2 3 7 9 10 12 14 16 18 18 18 17 15 14 13 13 15 16 15 13 11 11 10 9 9 8 7 8 11 11 11 11 11 11 12 11 10 9 10 10 9 9 9
14 17 21 25 25 23 22 22 22 23 23 22 23 25 24 24 24 23 24 25 26 28 28 28 28 25 26 25 23 22 20 18 16 12 8 5 5 6 7 6 5 4 3 2 4 8 11 12 13 15 16 17 17 16 15 14 14 15 17 17 15 13 12 11 10 9 10 9 8 8 10 11 12 12 12 13 13 12 11 10 9 9 9 7 7
16 17 18 21 23 22 21 21 21 21 21 19 19 20 20 21 21 22 24 25 26 28 29 30 29 27 28 27 24 23 21 19 19 15 11 7 5 5 6 6 5 4 3 2 1 4 7 11 13 14 15 16 16 16 15 15 16 17 18 17 15 13 12 11 10 10 11 10 8 8 10 11 11 12 13 14 14 13 12 11 9 9 7 5 5
14 15 14 15 19 22 22 22 22 21 20 18 16 16 17 16 16 19 23 26 28 28 29 31 31 31 31 29 26 24 23 21 20 18 15 11 7 5 5 6 6 5 3 2 1 1 4 6 10 12 14 15 15 16 16 17 18 19 19 16 15 13 12 11 11 12 12 11 10 10 10 9 10 13 15 14 14 13 13 12 9 8 7 5 5
9 9 12 15 16 20 22 22 22 21 21 21 18 15 16 16 18 20 23 26 28 29 30 31 30 30 31 29 28 25 24 24 22 20 19 15 10 7 6 6 6 6 5 4 3 2 2 4 6 8 11 13 15 16 18 19 20 20 18 16 14 13 12 12 12 12 12 11 11 10 10 9 11 14 16 16 14 12 12 13 9 7 9 9 7
13 7 14 20 20 20 21 22 23 23 20 20 21 21 21 19 19 23 27 29 31 31 32 30 29 31 33 31 29 27 26 25 24 23 22 18 15 11 8 6 6 6 6 6 6 4 2 4 5 7 9 13 16 18 19 20 21 19 17 16 15 14 14 14 13 13 12 11 11 10 10 11 12 15 16 15 14 12 11 12 10 8 9 9 8
21 15 13 15 18 21 21 19 20 21 18 17 19 24 29 29 26 27 30 31 33 34 33 31 29 32 34 32 30 30 28 27 26 25 22 21 19 16 11 9 8 7 7 7 7 5 3 3 6 7 10 13 16 18 19 20 19 17 16 15 15 15 16 15 14 13 12 12 11 11 11 12 13 15 15 14 14 13 12 12 11 11 10 8 8
25 25 26 27 24 19 19 20 19 19 19 19 20 22 27 32 32 34 33 29 32 35 34 31 30 31 31 31 31 31 29 28 27 26 24 23 21 18 15 13 11 9 8 8 8 7 5 4 7 9 12 14 17 18 19 20 18 16 15 14 15 16 16 15 14 14 13 12 12 12 12 13 13 14 14 15 14 13 12 12 12 12 10 8 8
28 30 32 35 36 30 23 20 20 23 24 23 23 24 30 36 38 39 38 34 35 38 37 32 28 28 31 33 34 34 31 29 28 28 27 25 22 19 18 16 15 13 11 9 9 8 7 6 8 12 14 16 18 19 20 20 19 17 15 15 16 17 16 15 14 13 13 13 13 12 12 13 12 13 13 14 14 12 11 11 11 12 10 8 8
32 33 33 35 39 40 38 32 28 30 31 29 29 29 31 35 38 40 40 39 39 38 38 35 28 28 33 37 38 38 33 30 30 30 29 27 24 22 20 18 17 17 14 11 10 9 9 8 9 13 15 17 19 21 21 21 20 18 18 18 18 17 16 14 13 12 13 14 13 12 12 11 11 12 12 12 12 12 11 11 11 11 10 9 9
36 37 36 36 37 40 44 46 42 42 43 41 39 37 35 33 34 37 37 37 39 39 38 37 32 31 34 37 39 39 36 33 32 30 29 28 26 25 23 20 18 19 17 13 11 11 11 10 10 13 16 18 19 21 22 22 21 21 22 21 19 18 15 13 12 11 12 14 14 13 12 11 10 11 11 10 10 10 10 11 10 10 9 9 9
41 41 41 39 38 39 41 45 47 48 50 51 49 46 43 42 39 39 38 35 36 39 40 39 36 35 35 37 39 40 37 35 34 31 29 29 29 27 24 21 19 19 17 15 14 13 13 12 11 13 16 18 20 21 22 21 21 22 22 21 20 18 14 12 11 10 12 15 15 14 13 11 11 11 10 9 9 9 9 9 9 9 9 10 10
41 42 43 41 40 39 40 42 43 46 50 53 55 52 47 46 45 45 45 41 38 39 42 42 40 40 40 39 39 39 37 35 35 34 31 30 30 28 25 23 20 19 18 17 16 15 14 14 13 14 16 19 21 22 21 21 21 22 21 20 20 19 15 12 11 10 12 15 16 15 14 13 12 12 10 8 8 9 9 9 9 8 9 11 11
36 38 41 42 40 39 41 41 41 44 47 50 53 54 49 47 48 48 48 48 46 44 45 45 43 42 41 40 39 39 39 37 36 37 36 33 31 29 27 26 22 19 19 19 18 17 17 16 15 15 16 18 21 22 22 22 22 23 23 22 20 20 17 15 14 12 12 15 16 16 15 14 13 12 11 9 8 8 9 9 9 9 11 13 12
36 35 37 40 41 40 40 42 42 43 45 47 50 53 51 48 48 48 48 49 51 52 52 50 47 44 43 42 41 41 43 42 38 38 39 37 34 31 30 29 26 22 22 22 21 20 19 18 17 16 17 18 20 22 23 24 25 26 25 22 20 21 20 19 17 15 14 14 15 16 15 15 14 14 13 11 10 10 10 11 11 11 14 14 13
39 37 36 37 39 41 41 42 43 43 44 46 48 51 51 49 47 49 50 50 52 56 56 53 50 46 42 41 41 41 43 44 43 41 41 40 38 34 31 31 29 27 26 25 23 22 22 21 19 18 18 19 21 22 24 25 26 25 23 21 20 21 22 20 19 18 17 15 14 15 15 15 15 15 15 14 12 12 12 13 13 14 15 15 14
41 41 38 36 37 40 41 42 43 44 44 46 48 50 51 50 49 50 52 53 55 56 56 54 51 46 40 37 38 38 38 42 46 44 40 40 41 38 33 31 30 30 29 27 26 25 25 23 22 21 20 21 22 24 25 26 25 23 22 21 21 22 22 20 19 19 21 19 16 16 16 15 15 16 17 17 15 15 16 16 15 15 16 16 16
41 41 40 38 36 38 41 43 44 45 45 46 48 50 51 50 50 52 54 55 55 55 54 55 51 42 34 33 36 37 36 38 44 43 37 36 40 39 37 35 34 32 31 29 29 28 27 26 26 24 22 22 24 25 26 27 26 25 24 24 24 24 24 23 22 22 22 21 18 17 17 16 16 17 19 19 18 18 19 19 17 17 17 18 18
41 40 40 39 38 37 40 43 44 46 47 47 49 50 51 49 50 53 56 56 55 54 53 54 53 44 34 31 35 37 37 37 40 42 39 37 40 40 39 39 38 34 32 31 31 31 30 29 29 27 25 25 26 27 28 29 28 27 27 28 26 25 25 26 25 23 22 21 19 18 18 18 17 18 20 20 20 21 21 21 20 19 19 21 22
39 39 39 39 39 38 39 42 45 46 48 49 50 50 50 50 50 53 56 56 55 54 53 53 54 51 41 36 38 39 40 39 38 41 44 43 42 40 36 37 40 39 36 34 33 33 33 32 32 30 28 28 29 30 30 30 30 29 29 29 27 27 29 29 27 25 24 23 22 22 22 21 21 21 22 22 21 22 22 23 23 21 20 22 25
38 38 38 38 38 38 39 41 45 47 48 51 52 51 51 51 51 52 53 55 54 53 53 54 56 56 48 43 44 44 45 45 43 45 48 47 46 43 37 36 41 42 40 37 35 36 37 35 34 33 33 33 33 34 34 33 32 32 31 30 28 28 30 30 28 27 27 27 26 25 25 24 23 23 24 23 20 20 23 24 24 24 23 24 25
36 37 38 38 39 39 39 41 44 47 49 52 53 53 53 54 53 51 51 54 55 54 54 53 56 59 55 49 47 46 46 50 50 50 50 48 48 50 46 40 40 42 43 42 39 40 41 39 38 36 35 36 36 37 39 38 36 35 34 32 30 30 31 32 30 30 30 30 28 26 25 24 22 22 23 22 19 19 22 25 25 25 25 24 24
35 36 37 38 39 39 40 41 43 46 49 52 54 54 55 57 55 52 52 55 56 53 53 54 55 60 60 53 49 47 46 49 51 50 51 49 48 51 50 44 40 41 43 43 43 45 46 44 40 37 37 39 40 41 44 43 40 39 38 36 34 33 33 34 32 31 31 31 28 26 25 23 22 21 22 21 19 20 24 27 27 26 26 25 25
34 35 36 38 39 40 40 41 43 46 48 52 55 56 57 60 59 55 56 58 55 50 50 52 54 60 62 57 51 49 46 46 47 47 49 50 51 51 48 44 42 39 38 39 42 47 50 49 44 41 42 44 44 46 49 48 45 43 42 40 38 35 34 34 33 32 32 31 28 26 26 25 23 23 23 22 21 23 28 29 29 28 27 27 28
34 34 35 37 39 40 41 42 43 46 47 50 55 57 59 62 62 60 62 63 59 53 51 51 52 58 62 59 54 52 49 48 48 46 47 49 51 50 46 43 41 36 33 36 40 46 52 53 49 46 47 47 47 50 52 51 47 46 45 42 39 36 35 35 34 33 33 32 30 28 28 27 25 25 25 24 23 26 30 32 31 31 29 29 30
34 34 34 36 39 40 41 42 43 45 47 48 53 57 60 62 63 64 67 68 64 59 55 53 53 56 58 57 55 53 53 53 52 50 49 50 51 51 48 44 41 36 32 35 40 45 52 55 52 50 48 48 49 52 53 51 48 47 47 43 39 37 36 36 36 35 35 35 34 33 31 30 28 27 28 29 28 30 32 34 34 34 32 31 31
35 35 34 36 38 40 42 42 43 44 46 48 50 55 59 63 65 66 68 70 70 65 59 56 56 58 58 56 54 55 55 56 56 55 54 55 57 56 51 49 47 41 37 37 41 47 52 52 52 51 50 50 52 53 54 52 48 48 48 45 40 38 38 38 38 37 37 38 38 37 35 33 31 30 30 31 32 34 36 37 37 35 33 33 32
36 36 36 37 39 40 42 43 44 44 45 46 48 52 57 62 65 67 68 69 71 70 66 60 57 59 60 58 57 58 58 57 57 58 58 59 62 60 54 53 54 50 45 44 45 50 54 52 51 52 52 53 54 54 54 52 50 49 49 47 43 40 39 40 40 40 40 40 40 38 37 36 34 32 32 32 33 35 38 38 37 34 32 32 34
37 38 38 38 39 41 42 44 46 46 45 45 47 50 54 59 64 67 68 68 68 70 71 68 63 61 62 62 61 60 59 58 57 59 61 62 64 62 56 56 57 56 53 50 50 53 57 57 55 53 52 54 56 57 56 54 52 51 51 49 45 43 41 41 42 42 42 43 43 40 37 37 36 34 33 33 34 35 38 38 37 36 35 36 37
40 39 40 40 41 42 43 45 47 49 48 47 47 48 51 55 61 66 68 69 68 67 70 72 72 68 64 64 66 64 61 61 60 60 63 63 64 64 59 57 57 56 54 53 54 56 58 59 59 56 52 53 57 58 58 56 55 53 50 47 47 46 44 44 44 44 42 42 43 42 40 38 38 37 37 36 36 36 38 38 38 37 38 39 39
43 42 42 42 42 43 45 47 49 51 53 52 50 49 50 53 58 63 67 70 69 68 68 69 72 72 67 67 71 68 65 65 65 64 64 63 64 65 61 58 57 56 53 53 57 60 59 59 60 58 53 52 56 58 58 57 56 53 48 46 45 45 45 46 47 46 43 39 39 41 40 39 38 39 41 41 40 39 38 38 38 38 39 40 40
44 43 42 42 42 43 44 47 50 52 55 56 56 54 53 53 56 59 64 68 70 70 69 66 66 67 67 71 76 72 68 68 70 69 68 66 66 66 62 58 58 58 57 56 58 62 62 60 60 60 55 52 54 58 58 56 56 55 53 51 49 46 45 46 47 46 43 40 39 39 39 39 39 41 42 42 42 40 38 39 40 41 42 43 43
44 42 41 41 41 41 42 44 47 50 53 56 59 60 58 58 58 58 60 66 70 71 70 67 62 59 60 68 75 73 69 69 69 71 71 69 68 67 62 58 58 60 60 60 60 63 64 63 62 62 57 54 55 58 58 55 54 54 52 51 52 51 48 47 47 45 43 43 44 42 41 41 42 43 43 43 43 42 41 41 42 44 45 46 46
43 41 40 39 39 40 40 41 44 47 50 53 57 60 62 63 63 61 60 63 68 72 72 69 63 57 56 64 71 72 70 69 67 69 71 70 69 67 62 58 58 59 61 62 62 64 65 64 64 62 57 54 56 59 57 55 53 51 48 47 48 49 49 48 47 46 45 46 46 46 45 46 46 46 46 46 45 44 43 43 44 45 46 47 48
42 40 39 38 37 37 38 39 40 43 46 49 53 57 60 62 64 65 64 63 66 72 75 73 68 61 58 61 66 69 69 68 66 66 69 70 70 68 63 58 57 59 61 63 64 66 67 67 66 64 60 56 56 58 57 55 53 51 49 48 48 48 50 50 48 48 49 49 49 49 50 50 49 47 47 47 46 46 46 46 46 47 48 49 50
40 38 36 35 34 33 34 35 36 38 40 44 48 52 56 58 60 64 67 67 67 69 74 76 73 66 60 57 59 63 66 66 66 66 65 67 70 70 65 60 56 56 60 64 67 68 69 68 69 68 65 61 59 58 57 55 54 53 51 51 50 49 50 51 51 51 51 52 52 51 52 51 51 50 49 49 50 50 50 49 49 50 51 52 52
38 35 33 31 30 29 29 31 32 33 35 38 42 47 51 53 55 60 67 71 71 70 73 77 76 71 65 57 54 58 61 61 63 65 64 66 68 69 67 62 56 53 55 59 64 68 70 70 71 70 67 65 63 61 59 58 57 57 56 53 51 49 48 50 53 54 54 54 55 56 55 53 53 52 53 53 53 53 52 52 52 53 53 52 52
35 32 29 27 25 24 24 26 27 27 30 33 37 42 47 50 51 56 63 70 74 73 74 77 76 73 69 64 58 58 58 57 58 62 64 65 66 66 66 63 57 54 53 52 55 61 64 67 71 72 70 68 66 64 62 61 60 60 59 56 53 50 47 47 49 54 57 57 56 55 55 54 53 53 53 53 53 52 52 52 52 52 52 52 52
32 29 26 24 22 20 20 21 23 23 25 29 33 37 43 47 50 53 58 65 73 74 74 76 76 72 70 69 64 57 51 51 56 60 62 64 64 64 64 61 55 53 52 48 49 55 58 59 66 73 73 71 69 67 65 64 62 61 61 60 57 54 51 48 47 49 52 55 53 51 51 52 52 52 52 51 51 51 51 51 51 51 52 52 52
28 25 23 22 21 19 18 19 20 20 21 24 28 33 37 42 47 51 54 60 69 74 73 74 76 74 71 71 69 59 45 43 51 58 59 61 63 63 62 59 53 51 50 45 47 55 58 55 60 71 74 72 71 69 67 65 63 61 61 61 60 59 57 54 50 47 47 48 48 48 48 48 49 50 50 51 51 51 51 51 51 52 53 53 53
25 22 20 19 18 18 17 18 18 19 18 20 23 28 33 38 44 49 52 56 64 72 73 73 75 76 73 71 71 64 50 43 48 53 54 59 64 64 61 57 53 50 49 47 48 55 59 57 58 67 73 73 71 70 67 65 63 61 60 60 61 60 58 57 57 54 50 48 47 46 46 46 47 49 50 52 53 54 54 55 55 55 56 55 55
23 21 19 17 17 18 18 17 18 19 18 17 20 24 29 35 41 47 49 53 61 69 73 73 74 76 74 71 70 66 56 49 50 51 51 57 64 65 60 56 54 51 48 47 47 49 52 55 59 66 72 73 72 70 67 65 63 61 60 59 60 60 59 57 58 57 54 52 50 49 49 49 49 50 51 53 54 55 56 57 58 58 58 58 58
Wind_Direction
245 249 237 229 237 240 240 245 248 248 248 245 241 241 245 247 249 253 253 251 253 257 264 273 282 285 277 273 281 292 310 331 341 341 347 360 1 360 353 351 353 322 227 211 204 200 203 209 209 205 206 212 216 221 222 217 218 210 197 202 204 177 125 101 109 118 77 53 137 173 182 164 148 132 109 93 102 119 116 106 103 99 99 104 101
239 241 234 230 238 243 242 244 247 249 251 251 248 245 245 246 248 251 253 254 255 257 264 270 278 282 274 268 275 288 304 327 340 340 343 356 3 2 356 349 351 343 224 208 203 199 200 205 207 203 203 208 212 216 216 215 215 211 201 202 203 186 140 113 117 126 101 74 118 167 178 161 159 153 129 98 112 140 133 120 112 99 97 102 98
237 240 240 238 242 248 250 250 249 251 252 252 250 246 245 246 246 249 250 252 252 255 260 265 271 277 271 266 272 282 296 321 338 338 338 348 2 5 0 352 349 355 240 201 200 197 196 201 203 201 202 205 207 211 212 212 213 211 205 202 200 191 156 129 128 134 134 123 132 159 165 150 152 164 171 145 133 146 142 129 117 101 94 97 94
241 244 242 240 244 247 251 255 254 253 252 250 249 246 244 244 244 245 248 249 248 249 253 258 264 269 267 268 272 278 288 308 328 334 334 340 358 6 4 358 349 357 29 185 193 194 193 197 200 200 201 202 203 206 207 208 212 213 207 201 197 193 168 142 147 150 151 179 157 144 147 142 136 146 162 146 135 131 126 128 125 111 103 101 95
237 245 243 238 241 245 249 255 257 256 253 251 252 249 245 245 244 244 247 249 249 248 249 251 253 256 260 265 271 276 280 289 308 327 331 332 348 3 6 6 354 337 22 165 182 189 192 196 198 198 200 200 200 202 204 207 212 214 208 198 195 193 175 155 164 166 166 178 160 142 143 143 129 130 159 153 147 136 119 124 128 119 112 107 101
232 242 246 241 239 244 248 251 256 260 256 253 255 254 251 248 246 245 245 248 250 249 248 247 245 247 252 260 272 278 271 270 290 316 329 326 336 356 6 8 0 310 223 168 174 182 188 194 197 198 199 198 198 199 202 206 212 214 207 195 193 191 178 167 172 172 173 177 171 159 160 168 165 161 177 172 168 168 154 140 132 126 120 115 110
236 245 252 249 242 242 245 247 254 260 257 253 257 261 255 248 246 246 244 243 244 246 249 249 245 244 249 258 271 277 264 260 279 302 320 321 327 347 4 11 9 324 211 179 171 178 184 190 193 197 197 197 197 198 201 207 212 213 206 193 190 190 181 177 175 171 176 187 187 184 184 195 197 176 182 190 180 173 168 155 140 132 128 123 118
233 241 251 252 245 242 243 247 252 257 257 254 255 257 253 250 251 249 243 241 241 242 246 249 249 251 254 260 269 270 256 255 272 290 306 317 321 333 355 12 19 12 209 189 173 175 183 187 191 195 197 198 197 197 200 207 211 212 203 191 187 186 182 182 178 171 177 184 181 184 192 201 196 176 182 191 179 169 163 151 141 138 135 131 125
228 228 237 245 248 247 247 252 257 258 257 254 251 251 255 258 256 248 243 243 241 241 243 241 241 251 257 259 264 262 251 252 267 280 293 313 317 322 339 2 23 36 172 192 186 182 185 188 191 194 197 198 197 197 200 206 210 209 199 189 185 183 183 182 178 175 182 188 184 182 187 191 183 173 180 184 173 166 165 159 149 146 145 141 134
236 236 236 239 246 251 252 255 259 259 258 256 251 251 258 261 256 252 249 246 242 240 241 233 224 235 250 254 255 255 249 250 262 272 280 301 313 314 323 340 8 36 69 175 191 193 192 193 193 195 198 198 197 197 200 204 208 204 193 188 185 181 183 180 176 180 188 193 191 180 178 181 180 175 176 177 169 166 173 175 161 149 145 144 141
244 246 242 237 239 248 252 252 252 254 256 256 250 250 259 262 258 256 253 248 242 238 239 236 228 230 243 248 248 246 243 248 257 264 267 277 300 306 309 322 339 12 45 106 178 195 200 201 201 200 200 200 197 196 197 202 205 198 189 188 185 181 182 179 177 184 189 190 188 178 173 178 182 177 173 173 172 172 179 178 166 154 146 147 152
255 251 247 240 241 249 254 252 252 254 254 253 253 256 262 265 261 255 249 244 239 238 240 242 239 236 241 244 243 239 238 246 254 257 259 259 268 282 288 303 316 330 8 45 121 191 201 205 207 207 204 202 198 194 196 199 198 192 188 187 184 182 185 183 183 184 184 186 187 175 171 175 179 176 172 174 173 176 182 178 170 168 163 158 166
261 257 255 249 251 259 259 252 245 246 246 244 248 256 259 264 264 254 248 245 240 239 244 246 241 240 241 240 237 237 237 242 249 254 257 254 251 259 270 283 295 297 303 329 353 211 206 206 208 208 205 201 197 194 194 193 189 187 187 186 184 188 190 188 186 184 182 185 183 176 172 176 178 174 172 175 176 179 187 185 181 190 201 206 189
239 261 277 272 264 262 261 253 241 240 245 242 236 237 246 257 263 254 246 244 242 240 243 245 242 240 241 239 237 236 236 240 247 254 259 255 248 255 266 272 281 284 275 267 276 277 234 211 204 200 195 192 189 187 186 184 183 183 184 184 189 196 195 189 185 182 182 182 180 181 184 182 177 174 174 178 180 182 189 194 198 203 204 206 197
204 246 291 290 285 275 262 248 240 241 245 241 233 223 220 225 239 247 245 241 241 240 241 243 243 243 242 239 236 233 233 239 244 250 258 256 251 255 259 259 267 276 273 260 261 277 263 214 195 183 176 174 175 175 177 178 179 181 183 189 196 197 191 186 182 181 183 182 180 183 186 180 173 173 176 180 181 178 180 189 196 193 185 188 192
207 222 243 251 266 276 269 249 236 235 230 223 219 215 212 209 212 226 235 239 240 239 239 240 242 244 240 235 233 230 230 236 241 245 251 251 252 256 254 255 260 261 267 260 253 265 273 215 183 173 165 163 166 169 173 177 179 182 186 191 194 189 184 181 179 182 183 180 179 177 176 175 174 177 181 181 179 176 177 181 187 189 183 181 188
223 225 221 216 220 237 259 262 254 245 232 217 202 195 201 207 208 214 220 228 235 234 231 234 239 242 238 234 233 231 230 233 236 239 242 240 243 248 248 253 261 257 256 257 249 251 259 221 182 173 167 164 167 171 175 179 181 183 187 189 186 182 180 179 181 185 181 175 171 167 167 170 171 175 179 180 178 176 179 183 187 191 189 188 195
241 235 229 226 221 217 223 241 254 254 250 239 219 200 195 197 201 208 212 214 224 229 226 227 237 241 238 238 238 234 231 230 231 234 236 232 230 236 240 249 264 263 254 251 246 242 245 231 192 179 176 172 173 175 178 181 181 182 182 180 178 176 175 176 179 183 181 176 169 161 159 160 161 164 171 177 181 183 186 189 192 196 197 202 209
256 248 240 233 229 224 218 216 223 233 237 236 228 217 206 199 199 206 210 207 211 220 220 218 225 236 240 241 239 235 231 228 229 231 232 229 229 234 238 245 262 265 254 245 240 236 240 236 205 188 184 182 180 179 180 182 182 181 177 174 174 173 172 175 179 183 185 180 173 167 162 157 156 160 166 175 183 188 192 193 195 201 207 215 222
266 261 255 245 236 231 226 221 220 224 227 227 225 223 219 216 211 210 212 209 207 211 213 212 215 226 236 239 236 233 231 227 228 230 231 231 234 239 238 242 256 259 250 241 234 230 236 237 218 198 190 188 187 184 183 184 183 180 177 176 178 177 177 181 187 189 190 186 183 180 175 168 164 165 169 175 182 185 187 191 196 205 213 217 222
265 263 260 254 245 238 234 229 226 226 228 229 229 229 228 228 227 221 220 220 215 211 210 209 209 213 221 229 230 230 229 228 229 229 229 230 234 238 237 240 253 256 248 241 234 228 231 235 228 208 196 193 190 187 186 185 182 179 178 179 182 184 184 187 188 189 193 194 193 188 185 179 175 178 180 183 189 189 189 194 198 207 219 220 221
259 258 257 254 248 242 238 236 232 229 229 229 230 232 233 233 233 232 230 228 224 218 214 210 210 211 214 217 221 224 228 233 234 232 231 230 232 234 233 236 248 253 247 242 236 230 228 232 231 216 203 197 192 189 191 190 184 180 179 180 182 184 188 193 194 195 196 198 199 196 193 190 188 192 195 193 193 195 200 205 203 211 228 231 231
257 254 253 252 248 242 237 237 236 233 231 228 227 231 233 232 231 233 232 229 226 225 220 215 214 215 215 212 212 216 223 230 235 236 235 233 233 233 232 235 243 247 243 240 236 231 228 228 229 222 210 203 197 194 196 197 194 188 183 182 184 186 192 198 198 198 202 204 205 205 205 202 200 202 204 199 199 205 216 217 213 222 233 236 241
267 258 252 249 247 242 237 234 234 234 233 228 225 228 231 230 228 228 227 225 223 223 222 219 218 219 219 215 211 211 215 220 230 238 236 233 233 232 234 238 242 241 237 237 236 231 227 225 225 224 217 209 202 199 199 200 199 195 192 192 193 195 199 200 199 202 208 208 207 209 211 210 210 212 211 208 210 218 227 225 223 231 236 240 248
274 268 258 250 245 242 238 234 232 232 232 229 224 224 226 226 224 222 221 219 218 219 219 218 218 219 219 219 217 214 213 214 221 229 233 232 230 230 235 242 244 241 235 234 233 231 227 223 221 223 220 212 206 203 201 199 198 200 202 203 202 204 208 207 205 206 204 203 210 214 213 211 214 217 218 220 225 231 237 237 236 239 243 249 254
275 271 265 256 247 242 238 234 230 229 230 229 224 221 222 222 221 219 218 216 215 217 216 216 217 218 220 223 223 221 219 217 218 221 227 231 231 232 237 240 240 238 235 232 230 230 229 222 218 221 220 214 209 206 204 202 201 203 206 205 203 204 209 211 212 212 208 207 214 218 217 219 223 224 225 229 236 240 242 244 246 247 250 256 260
275 271 268 261 252 244 238 234 230 227 228 229 225 220 218 219 218 217 215 214 213 214 214 215 215 215 219 226 225 223 224 224 221 218 221 228 233 237 239 237 236 235 235 233 230 229 228 222 218 219 218 217 215 210 208 206 203 203 204 203 200 201 208 213 217 222 222 219 218 218 219 225 231 233 233 235 238 243 244 246 249 250 253 258 262
276 272 268 264 257 247 239 234 231 227 225 227 227 222 217 217 217 215 213 212 211 212 213 214 213 212 215 222 224 224 226 229 226 221 220 224 229 235 238 237 239 238 236 236 233 231 229 223 217 216 217 219 219 214 211 208 205 205 205 202 200 206 214 216 215 220 223 223 226 227 225 226 229 235 239 240 239 242 245 249 254 255 255 260 263
279 274 269 264 258 250 242 235 232 228 224 224 226 223 217 215 216 215 212 210 209 212 214 214 212 211 213 218 221 223 225 228 228 223 220 221 223 227 233 239 240 240 239 238 235 231 229 224 218 218 219 220 220 219 216 212 210 210 208 206 209 216 220 218 216 219 222 224 228 232 233 234 234 236 240 241 241 244 249 253 257 257 256 260 263
280 276 271 265 258 252 244 237 232 229 225 222 224 223 217 213 213 213 212 208 206 209 213 213 212 212 212 212 213 217 222 224 224 222 220 221 221 220 226 235 237 238 240 240 237 232 227 225 222 219 220 221 222 223 222 218 215 214 214 215 218 221 223 224 223 223 224 226 227 230 236 239 239 238 239 240 242 249 255 256 258 258 258 261 261
280 276 271 266 260 253 246 239 233 229 225 221 222 222 218 213 210 210 210 207 204 207 214 215 214 213 211 208 209 212 217 220 221 221 221 223 221 217 220 229 233 236 238 239 238 233 225 224 223 218 218 223 225 227 227 224 222 220 221 223 225 227 231 232 230 227 227 227 228 230 235 237 237 239 242 243 243 248 254 256 256 258 260 261 260
279 275 270 266 261 255 248 242 236 230 225 221 220 220 218 215 211 208 206 204 203 209 217 218 216 213 210 209 211 212 215 218 219 220 221 221 218 215 217 223 227 232 235 236 238 235 226 224 223 219 222 226 227 229 229 227 226 225 225 228 231 234 236 235 234 232 231 230 230 230 231 232 233 238 243 248 250 251 253 254 256 259 261 263 262
279 273 269 265 261 257 251 244 238 233 227 222 220 219 217 217 215 208 203 201 200 203 209 211 212 214 212 211 211 211 213 216 216 219 220 219 216 213 215 219 223 230 233 232 236 235 228 224 223 224 229 229 226 227 228 228 228 228 230 233 233 233 234 233 234 235 234 233 232 230 230 231 234 237 243 248 253 255 254 254 257 260 263 266 267
279 272 267 264 260 257 253 247 241 236 230 224 220 218 216 217 217 212 205 203 203 204 206 205 207 211 214 215 216 216 217 217 216 217 216 215 213 211 211 215 219 225 229 228 231 232 226 224 226 230 232 230 225 225 225 226 228 230 232 234 231 229 231 232 233 236 236 235 234 232 230 232 234 238 244 247 249 252 252 254 257 260 263 266 266
279 273 267 263 259 257 254 250 244 238 234 227 221 218 215 215 217 216 212 210 211 212 211 207 204 205 208 212 217 220 221 222 222 220 218 217 215 211 211 213 216 221 224 226 230 228 223 225 230 234 233 229 225 225 224 225 228 230 230 231 230 229 231 233 234 236 236 236 239 238 232 230 234 239 245 249 249 250 251 254 256 259 262 264 264
280 274 268 262 259 257 255 252 248 241 236 231 223 217 215 215 215 217 217 215 216 218 215 209 204 202 202 205 210 214 216 219 222 222 221 222 221 218 217 218 220 223 223 223 227 224 221 224 231 234 232 227 225 226 226 226 228 230 229 229 231 232 232 234 236 236 235 237 242 242 235 231 235 242 248 253 253 252 252 254 257 260 262 263 264
280 275 269 264 259 256 254 253 251 246 239 234 228 221 216 215 215 217 218 218 219 220 219 215 210 206 204 205 208 211 211 214 218 221 221 223 224 223 224 224 225 227 226 226 227 224 220 223 229 232 232 227 225 226 228 228 229 229 228 228 230 232 233 235 237 236 236 238 242 243 239 233 234 240 249 257 258 256 254 255 258 260 259 261 263
282 277 272 266 261 256 254 252 252 250 244 237 232 226 219 216 215 216 218 219 220 220 220 220 218 213 211 211 210 210 211 213 216 219 221 223 222 222 224 227 229 230 230 231 230 225 222 222 225 229 233 229 225 225 229 230 229 228 228 230 232 233 232 234 237 237 238 239 240 242 241 236 233 238 248 256 259 258 256 255 258 259 259 262 265
286 281 275 270 264 258 254 251 249 250 248 242 235 230 224 219 216 216 216 217 219 220 219 220 220 219 218 218 216 214 214 216 217 218 221 222 221 220 223 227 228 229 231 232 230 226 224 224 224 227 231 230 227 226 228 230 231 230 230 233 236 236 234 233 234 235 239 240 240 242 242 239 237 239 245 252 258 259 256 255 257 260 262 265 267
290 286 280 274 268 261 255 251 247 246 247 245 240 233 228 224 220 217 214 214 217 219 218 218 219 219 222 224 222 219 219 220 220 221 223 223 221 220 224 227 227 227 229 230 228 225 225 226 225 224 227 231 230 227 228 230 232 232 230 231 233 234 235 234 233 236 242 244 243 244 245 243 242 242 244 250 255 257 255 253 255 259 262 265 267
293 290 285 278 271 264 258 252 248 244 242 242 241 237 231 227 224 220 215 212 214 216 216 215 215 218 223 226 224 222 222 223 224 225 225 224 223 222 225 227 226 226 228 229 228 226 226 227 224 221 226 233 232 227 227 230 232 234 233 233 232 233 236 237 236 238 243 244 244 247 248 246 244 244 245 248 252 254 254 254 256 259 262 264 266
297 293 288 282 276 268 261 254 249 245 241 239 238 237 233 229 226 223 217 212 211 213 213 211 211 216 222 224 222 221 221 222 224 226 225 224 223 223 225 227 227 227 229 229 228 227 227 228 225 223 228 235 231 226 227 229 232 234 235 235 235 235 237 239 239 239 240 241 244 248 250 248 246 244 245 248 252 255 257 258 260 262 264 266 267
301 296 290 285 279 273 265 257 251 246 242 238 236 235 233 230 226 224 220 215 211 210 211 210 210 214 218 220 220 221 220 220 222 224 223 223 222 221 224 227 227 229 230 230 228 228 229 229 227 225 228 231 228 225 227 230 232 234 235 236 236 235 235 237 239 240 240 241 244 247 248 248 247 246 247 251 254 257 260 262 265 267 267 268 269
303 299 293 287 282 276 269 261 254 247 242 238 235 234 232 229 225 223 222 218 212 210 210 210 210 212 213 216 220 220 219 220 222 222 223 221 219 219 222 225 227 230 232 231 229 229 229 230 228 226 227 229 226 225 228 229 230 234 237 238 238 237 236 237 239 239 239 240 243 245 248 248 248 248 250 252 255 259 264 266 268 269 270 271 271
304 300 295 289 283 277 270 264 256 249 243 237 234 233 231 229 224 221 220 219 215 211 209 210 212 212 210 212 218 219 220 221 222 222 222 220 217 218 221 222 225 230 234 233 232 230 229 230 229 228 229 229 227 226 228 229 230 234 239 239 239 239 239 239 239 238 237 238 241 246 249 249 247 248 250 252 257 262 266 268 269 270 271 271 271
307 302 296 290 284 277 271 265 258 251 245 238 233 230 229 228 224 219 218 218 216 212 209 209 212 213 210 209 214 218 220 223 222 220 220 218 216 217 218 220 224 230 233 235 235 232 230 230 230 229 229 229 228 228 229 230 232 236 238 237 236 238 240 240 239 238 237 239 243 247 250 249 247 248 251 255 259 263 265 267 268 269 269 270 271
308 304 298 292 286 280 273 268 261 253 246 240 234 229 227 226 223 219 216 216 216 213 210 208 211 212 210 209 212 216 219 222 222 219 216 215 215 215 216 219 224 227 227 230 234 233 232 232 231 230 229 229 229 230 231 232 234 237 238 236 235 237 240 242 243 241 239 242 246 249 249 248 249 252 256 259 261 263 264 265 266 267 268 270 272
309 305 301 296 290 284 278 271 263 255 248 241 235 230 227 225 222 218 216 215 215 214 211 208 208 210 208 208 210 213 217 222 223 218 215 214 213 213 214 218 221 222 223 228 235 235 233 233 232 230 229 229 230 231 233 235 237 239 240 240 239 238 240 245 248 247 244 245 247 249 249 250 253 257 260 262 263 263 264 265 266 268 270 272 273
309 305 301 297 294 290 287 280 269 259 250 242 236 230 227 224 221 217 215 214 213 213 211 207 206 206 206 207 207 208 212 218 219 218 215 213 210 210 213 216 219 220 223 230 237 237 235 236 234 230 228 229 230 231 234 237 240 241 242 243 244 242 242 244 247 249 250 248 249 251 253 256 259 260 261 262 263 263 264 265 267 270 271 272 273
309 307 304 303 300 296 294 290 280 267 254 244 238 232 227 224 220 216 214 212 211 212 210 207 204 204 206 207 205 205 207 209 211 213 214 211 208 209 214 217 218 220 224 231 237 239 239 239 236 231 228 229 230 231 234 237 240 242 243 244 245 245 245 246 247 250 252 252 251 253 256 259 261 261 261 262 262 263 265 267 269 271 272 272 273
314 313 312 311 307 303 298 293 285 275 261 247 237 230 226 224 219 215 213 211 210 210 209 206 203 203 206 206 203 202 205 205 204 206 208 208 208 212 216 219 219 221 226 233 238 242 243 242 237 231 229 229 229 230 233 237 239 241 243 243 244 245 245 246 248 250 253 253 253 255 257 259 261 262 262 263 263 264 266 268 270 271 272 273 275
Height
10977 10978 10981 10981 10974 10970 10973 10975 10977 10979 10980 10983 10986 10986 10984 10986 10987 10987 10989 10989 10990 10990 10989 10990 10990 10990 10990 10990 10990 10990 10989 10988 10987 10986 10985 10984 10983 10981 10981 10980 10979 10978 10978 10979 10980 10982 10983 10985 10986 10988 10989 10990 10991 10991 10991 10992 10992 10991 10991 10992 10992 10993 10993 10993 10993 10993 10992 10992 10992 10991 10991 10992 10992 10992 10992 10992 10992 10993 10994 10995 10995 10994 10994 10994 10995
10972 10972 10972 10968 10965 10968 10972 10973 10974 10975 10976 10978 10982 10982 10982 10983 10984 10985 10986 10987 10988 10988 10988 10988 10989 10989 10989 10989 10989 10990 10990 10989 10988 10987 10986 10985 10984 10982 10981 10981 10980 10979 10978 10978 10979 10981 10983 10984 10986 10987 10989 10990 10991 10991 10992 10992 10992 10992 10992 10992 10993 10993 10994 10994 10994 10994 10994 10993 10993 10993 10993 10994 10994 10994 10994 10994 10994 10994 10995 10996 10996 10996 10995 10995 10995
10966 10965 10963 10961 10963 10967 10968 10969 10971 10971 10970 10973 10977 10978 10978 10979 10981 10983 10984 10985 10986 10986 10986 10986 10987 10987 10987 10988 10988 10989 10990 10989 10988 10988 10987 10986 10985 10983 10981 10981 10980 10980 10979 10978 10979 10980 10982 10984 10985 10987 10989 10990 10991 10991 10991 10992 10992 10992 10992 10993 10993 10994 10995 10995 10995 10995 10995 10995 10995 10994 10995 10995 10995 10995 10996 10996 10996 10996 10996 10996 10997 10996 10996 10996 10996
10961 10958 10957 10958 10960 10963 10963 10964 10965 10964 10965 10968 10971 10974 10975 10975 10977 10979 10981 10982 10983 10983 10983 10984 10985 10985 10986 10987 10987 10989 10989 10989 10988 10988 10987 10986 10985 10983 10982 10981 10980 10980 10979 10979 10979 10980 10981 10983 10985 10987 10988 10989 10990 10990 10991 10992 10992 10992 10992 10993 10994 10995 10995 10996 10996 10997 10997 10997 10997 10996 10996 10996 10996 10996 10996 10997 10997 10997 10996 10997 10997 10997 10997 10996 10997
10959 10954 10954 10957 10958 10958 10960 10959 10960 10961 10963 10965 10968 10971 10973 10973 10974 10976 10977 10979 10980 10980 10980 10981 10983 10984 10985 10986 10986 10988 10988 10988 10988 10987 10987 10986 10985 10983 10982 10980 10980 10980 10979 10979 10979 10980 10981 10983 10985 10986 10988 10989 10989 10990 10991 10992 10992 10992 10992 10993 10994 10995 10996 10996 10997 10997 10998 10998 10998 10997 10997 10997 10997 10997 10997 10998 10998 10997 10997 10997 10998 10998 10997 10998 10999
10958 10955 10953 10955 10956 10956 10956 10956 10957 10959 10961 10964 10966 10969 10972 10972 10973 10974 10976 10977 10977 10978 10978 10979 10981 10982 10983 10984 10985 10987 10988 10988 10987 10987 10986 10986 10985 10983 10982 10980 10980 10980 10980 10979 10979 10980 10981 10983 10984 10986 10987 10988 10989 10990 10991 10992 10992 10992 10992 10993 10994 10995 10996 10997 10997 10998 10998 10999 10999 10998 10997 10998 10998 10998 10998 10998 10999 10998 10998 10999 10999 10999 10999 11000 11000
10960 10961 10957 10955 10955 10954 10954 10955 10955 10956 10958 10961 10964 10967 10969 10970 10971 10973 10974 10974 10975 10977 10978 10979 10980 10981 10982 10983 10984 10986 10987 10987 10987 10986 10986 10986 10985 10983 10982 10981 10979 10979 10979 10980 10980 10980 10981 10983 10984 10986 10987 10988 10989 10990 10991 10992 10992 10992 10992 10993 10994 10995 10996 10996 10997 10998 10999 10999 10999 10999 10998 10998 10998 10998 10998 10999 10999 10999 10999 11000 11000 11001 11001 11002 11002
10956 10962 10960 10954 10952 10952 10954 10956 10956 10955 10957 10961 10963 10965 10968 10970 10971 10971 10972 10973 10974 10976 10977 10978 10979 10979 10980 10982 10983 10985 10986 10986 10987 10986 10986 10985 10985 10984 10982 10981 10980 10979 10979 10980 10980 10981 10982 10983 10984 10985 10987 10988 10989 10990 10991 10992 10992 10992 10992 10993 10994 10995 10995 10996 10997 10998 10999 10999 10999 10999 10998 10998 10998 10998 10998 10998 10999 10999 11000 11001 11001 11001 11002 11003 11003
10945 10951 10952 10950 10948 10948 10953 10955 10954 10955 10958 10960 10963 10964 10967 10969 10970 10971 10971 10972 10973 10974 10975 10976 10978 10980 10980 10981 10982 10984 10985 10985 10986 10986 10986 10985 10985 10984 10983 10981 10980 10979 10979 10979 10980 10981 10982 10983 10984 10986 10987 10988 10989 10990 10991 10991 10992 10991 10992 10993 10994 10994 10995 10996 10996 10997 10999 10999 10999 10999 10998 10998 10998 10999 10999 10999 10999 11000 11001 11001 11002 11002 11004 11005 11004
10938 10941 10944 10945 10945 10947 10952 10954 10953 10954 10957 10959 10961 10963 10965 10968 10969 10970 10970 10971 10972 10973 10974 10973 10975 10979 10980 10980 10981 10983 10983 10984 10985 10986 10986 10985 10985 10984 10983 10981 10980 10979 10979 10979 10980 10981 10982 10983 10985 10986 10987 10988 10989 10990 10991 10991 10991 10991 10992 10992 10993 10994 10995 10996 10996 10997 10998 10999 10999 10999 10999 10999 10999 10999 11000 11000 11000 11001 11002 11003 11003 11004 11005 11006 11006
10936 10939 10941 10943 10944 10946 10949 10952 10952 10953 10955 10957 10960 10962 10964 10965 10967 10968 10969 10969 10970 10971 10973 10972 10972 10975 10978 10978 10980 10981 10982 10983 10984 10985 10985 10985 10984 10984 10983 10982 10980 10979 10979 10979 10979 10980 10981 10983 10984 10985 10987 10988 10989 10990 10991 10991 10991 10991 10992 10992 10993 10994 10995 10996 10997 10997 10998 10999 10999 10999 10999 10999 10999 11000 11000 11001 11001 11002 11003 11004 11005 11006 11006 11007 11007
10934 10936 10939 10941 10943 10945 10948 10950 10950 10951 10953 10955 10958 10960 10961 10963 10965 10967 10967 10967 10968 10969 10970 10971 10972 10973 10975 10977 10978 10979 10980 10981 10982 10984 10984 10983 10983 10983 10982 10982 10981 10980 10979 10979 10979 10980 10980 10982 10983 10984 10986 10987 10989 10990 10990 10991 10991 10991 10992 10992 10993 10994 10995 10995 10996 10997 10998 10999 10999 10999 10999 10999 10999 11000 11000 11002 11003 11004 11004 11005 11006 11007 11007 11007 11007
10932 10934 10938 10941 10943 10943 10945 10947 10948 10949 10950 10952 10956 10958 10959 10960 10962 10964 10965 10965 10966 10969 10968 10968 10970 10973 10974 10975 10977 10978 10979 10980 10981 10982 10983 10982 10982 10982 10982 10981 10981 10980 10980 10979 10979 10979 10980 10981 10982 10983 10984 10986 10987 10989 10989 10990 10991 10991 10992 10993 10993 10994 10994 10995 10996 10997 10998 10998 10999 10999 10999 10999 11000 11000 11001 11002 11004 11004 11005 11006 11007 11007 11008 11008 11008
10932 10933 10935 10938 10941 10942 10943 10944 10945 10946 10947 10948 10952 10953 10953 10953 10953 10956 10959 10961 10963 10966 10966 10966 10968 10970 10972 10974 10976 10977 10978 10979 10980 10981 10982 10982 10982 10982 10981 10981 10981 10981 10980 10979 10979 10979 10979 10980 10981 10982 10983 10985 10986 10987 10988 10990 10990 10991 10992 10993 10994 10994 10994 10995 10996 10997 10997 10998 10998 10999 10999 11000 11000 11001 11002 11003 11004 11005 11005 11006 11007 11008 11008 11009 11009
10932 10933 10934 10935 10937 10939 10940 10942 10942 10943 10943 10944 10945 10944 10943 10943 10942 10942 10947 10953 10955 10958 10960 10962 10965 10967 10969 10971 10974 10976 10977 10978 10978 10980 10982 10983 10982 10982 10982 10981 10981 10981 10980 10980 10979 10979 10979 10980 10980 10981 10982 10984 10985 10987 10988 10989 10990 10991 10992 10993 10994 10994 10994 10995 10995 10996 10997 10997 10998 10998 10999 10999 11000 11001 11002 11003 11003 11004 11005 11006 11007 11008 11008 11008 11009
10931 10931 10934 10936 10937 10936 10936 10937 10939 10940 10940 10940 10938 10937 10934 10933 10931 10928 10932 10940 10945 10948 10952 10956 10961 10964 10966 10968 10971 10973 10975 10976 10977 10978 10981 10982 10982 10982 10982 10981 10981 10981 10980 10980 10979 10979 10979 10979 10980 10981 10982 10983 10985 10986 10988 10989 10990 10991 10992 10992 10993 10993 10994 10994 10995 10995 10996 10997 10997 10997 10998 10999 11000 11000 11001 11002 11003 11004 11005 11006 11007 11007 11008 11009 11009
10928 10927 10928 10931 10934 10936 10935 10934 10935 10935 10935 10936 10934 10932 10928 10925 10923 10921 10923 10928 10933 10937 10943 10950 10956 10961 10964 10966 10968 10970 10972 10973 10974 10977 10979 10981 10981 10982 10982 10981 10980 10980 10980 10979 10979 10979 10979 10979 10979 10980 10981 10983 10984 10986 10987 10989 10990 10991 10992 10992 10993 10993 10994 10994 10995 10995 10996 10996 10997 10997 10997 10998 10999 11000 11001 11002 11003 11004 11004 11005 11006 11007 11008 11009 11009
10923 10924 10925 10925 10927 10930 10931 10931 10933 10931 10929 10931 10931 10929 10925 10920 10917 10914 10916 10920 10923 10928 10936 10945 10952 10959 10963 10965 10967 10968 10969 10970 10972 10974 10976 10978 10979 10979 10980 10980 10980 10980 10980 10979 10979 10979 10978 10978 10978 10979 10980 10981 10983 10984 10986 10987 10989 10990 10990 10991 10992 10993 10994 10994 10995 10995 10996 10996 10997 10997 10997 10998 10999 10999 11000 11001 11002 11003 11004 11005 11006 11007 11008 11009 11009
10916 10917 10920 10920 10921 10922 10923 10923 10923 10921 10920 10922 10925 10924 10922 10918 10915 10910 10910 10915 10920 10925 10933 10941 10949 10957 10961 10963 10964 10965 10966 10967 10968 10971 10973 10975 10976 10977 10977 10978 10979 10979 10979 10978 10978 10978 10978 10978 10978 10978 10979 10980 10981 10982 10984 10985 10987 10988 10989 10990 10991 10992 10993 10994 10994 10995 10996 10996 10997 10997 10998 10998 10999 10999 11000 11001 11002 11003 11004 11005 11006 11007 11008 11008 11008
10909 10910 10911 10914 10915 10915 10915 10915 10914 10911 10910 10911 10913 10915 10916 10916 10916 10913 10912 10916 10920 10924 10930 10937 10945 10952 10957 10960 10961 10962 10963 10963 10965 10968 10971 10973 10974 10975 10975 10975 10976 10977 10977 10976 10976 10977 10978 10978 10978 10978 10979 10980 10981 10982 10983 10984 10985 10986 10987 10989 10990 10992 10993 10993 10994 10995 10995 10996 10996 10997 10998 10998 10999 11000 11000 11001 11002 11003 11004 11005 11006 11007 11007 11007 11007
10903 10903 10904 10906 10908 10908 10908 10909 10909 10907 10905 10904 10905 10907 10909 10910 10912 10913 10913 10916 10920 10923 10928 10935 10939 10943 10948 10952 10954 10956 10958 10960 10961 10965 10968 10970 10971 10972 10973 10973 10973 10974 10974 10975 10975 10976 10977 10977 10978 10978 10979 10980 10981 10982 10983 10983 10984 10985 10986 10988 10989 10991 10992 10993 10993 10994 10994 10995 10996 10996 10997 10998 10999 10999 11000 11001 11002 11002 11003 11004 11005 11006 11006 11006 11006
10898 10897 10897 10898 10900 10901 10901 10901 10902 10902 10901 10900 10900 10901 10902 10904 10905 10907 10910 10914 10919 10922 10926 10931 10935 10935 10936 10940 10945 10951 10955 10958 10960 10962 10964 10965 10966 10968 10970 10969 10969 10970 10971 10972 10973 10974 10975 10976 10977 10978 10979 10979 10980 10981 10982 10983 10984 10984 10985 10987 10988 10989 10991 10991 10992 10993 10994 10994 10995 10996 10996 10997 10998 10999 10999 11000 11001 11002 11003 11003 11004 11004 11005 11006 11006
10892 10891 10890 10891 10892 10894 10895 10895 10895 10895 10894 10895 10897 10897 10898 10899 10899 10901 10905 10910 10915 10919 10921 10925 10928 10930 10930 10932 10936 10942 10948 10954 10957 10959 10960 10961 10962 10965 10966 10966 10966 10967 10968 10970 10971 10972 10973 10975 10976 10977 10978 10978 10979 10980 10981 10981 10982 10983 10984 10985 10986 10988 10989 10990 10991 10991 10992 10993 10994 10995 10995 10996 10997 10998 10999 11000 11000 11001 11002 11002 11002 11003 11004 11005 11005
10884 10884 10884 10884 10884 10886 10888 10889 10889 10889 10888 10889 10892 10893 10894 10895 10895 10896 10900 10904 10909 10912 10916 10919 10923 10926 10929 10930 10931 10932 10936 10944 10951 10954 10955 10957 10959 10961 10962 10962 10963 10964 10965 10967 10968 10969 10971 10972 10974 10975 10976 10976 10977 10978 10978 10979 10979 10980 10982 10983 10984 10986 10986 10987 10988 10989 10990 10991 10992 10993 10994 10995 10996 10997 10998 10999 11000 11000 11001 11001 11001 11002 11002 11003 11003
10876 10876 10877 10877 10877 10878 10880 10882 10883 10883 10882 10883 10886 10888 10889 10890 10891 10892 10894 10898 10902 10905 10910 10916 10920 10924 10927 10930 10930 10929 10930 10934 10939 10944 10947 10951 10954 10956 10958 10959 10960 10961 10962 10963 10964 10966 10967 10969 10971 10973 10974 10974 10975 10975 10976 10976 10977 10979 10981 10983 10984 10985 10985 10986 10986 10987 10987 10987 10988 10989 10991 10993 10994 10996 10997 10998 10999 10999 11000 10999 11000 11000 11001 11001 11001
10868 10868 10868 10869 10870 10871 10873 10875 10876 10877 10876 10876 10879 10882 10884 10884 10885 10887 10890 10893 10897 10900 10905 10912 10917 10921 10924 10928 10931 10932 10931 10931 10931 10934 10940 10947 10951 10953 10955 10957 10957 10957 10958 10959 10960 10961 10963 10966 10968 10970 10971 10972 10973 10973 10974 10975 10977 10978 10980 10981 10982 10983 10984 10985 10986 10986 10986 10984 10984 10985 10987 10989 10992 10994 10995 10996 10997 10998 10998 10998 10998 10998 10998 10998 10999
10861 10860 10861 10862 10863 10864 10866 10867 10869 10870 10869 10870 10872 10875 10878 10879 10879 10881 10885 10889 10893 10897 10902 10907 10912 10916 10920 10925 10928 10931 10933 10933 10931 10932 10936 10942 10948 10950 10952 10954 10954 10954 10954 10955 10956 10957 10959 10963 10965 10966 10968 10970 10971 10971 10972 10973 10974 10975 10976 10977 10978 10980 10981 10982 10984 10985 10985 10984 10983 10983 10983 10985 10987 10990 10992 10993 10994 10995 10995 10995 10995 10995 10995 10996 10997
10854 10853 10853 10854 10855 10856 10858 10860 10861 10862 10863 10864 10865 10868 10872 10873 10874 10875 10879 10885 10890 10894 10898 10902 10907 10910 10912 10915 10920 10924 10928 10930 10930 10931 10932 10937 10941 10944 10948 10951 10951 10951 10951 10952 10953 10955 10957 10960 10962 10963 10964 10966 10968 10969 10969 10970 10971 10972 10973 10974 10975 10977 10978 10979 10979 10981 10982 10983 10983 10983 10982 10982 10982 10985 10988 10989 10991 10992 10992 10992 10992 10992 10992 10993 10994
10847 10846 10846 10846 10847 10848 10850 10852 10853 10855 10857 10858 10859 10861 10865 10867 10868 10869 10873 10880 10885 10890 10893 10896 10899 10900 10900 10903 10907 10912 10915 10919 10922 10924 10927 10930 10934 10937 10942 10946 10947 10947 10947 10948 10950 10952 10954 10956 10958 10959 10960 10961 10963 10965 10966 10968 10969 10970 10971 10972 10973 10974 10975 10976 10976 10977 10979 10980 10981 10981 10981 10981 10981 10982 10984 10985 10987 10988 10989 10989 10990 10990 10991 10991 10992
10840 10839 10838 10838 10838 10840 10842 10844 10845 10847 10849 10851 10853 10855 10858 10861 10862 10864 10868 10875 10881 10884 10886 10888 10890 10890 10889 10889 10891 10895 10900 10904 10908 10912 10917 10920 10924 10929 10935 10938 10939 10941 10942 10944 10946 10948 10950 10952 10953 10954 10954 10954 10957 10960 10962 10965 10966 10967 10969 10970 10971 10972 10972 10974 10975 10976 10977 10977 10978 10979 10979 10980 10981 10981 10980 10981 10983 10984 10985 10986 10987 10988 10989 10989 10989
10834 10832 10831 10830 10830 10831 10833 10835 10837 10839 10841 10844 10846 10848 10851 10855 10857 10859 10863 10869 10875 10878 10878 10879 10880 10880 10880 10880 10881 10885 10890 10894 10897 10902 10907 10912 10915 10920 10924 10927 10929 10932 10935 10939 10942 10943 10946 10947 10948 10948 10948 10947 10950 10954 10958 10961 10964 10965 10966 10967 10969 10970 10971 10972 10973 10974 10974 10975 10976 10977 10978 10979 10979 10979 10978 10978 10978 10980 10982 10984 10984 10985 10986 10986 10986
10827 10825 10824 10822 10822 10823 10824 10826 10828 10830 10833 10836 10839 10842 10845 10848 10852 10855 10859 10863 10868 10870 10869 10869 10871 10872 10874 10876 10877 10880 10883 10885 10890 10895 10900 10904 10907 10911 10915 10919 10922 10925 10928 10932 10936 10938 10941 10943 10943 10943 10943 10943 10947 10951 10954 10957 10960 10962 10963 10965 10967 10968 10968 10969 10970 10971 10971 10972 10974 10976 10976 10976 10977 10977 10977 10976 10975 10977 10979 10981 10982 10982 10983 10984 10984
10820 10818 10817 10815 10815 10815 10816 10818 10820 10822 10825 10828 10831 10834 10837 10841 10845 10850 10853 10856 10860 10861 10860 10860 10863 10866 10869 10872 10874 10876 10878 10880 10885 10889 10893 10896 10901 10906 10911 10914 10916 10919 10923 10927 10931 10933 10936 10938 10939 10938 10937 10939 10944 10948 10950 10953 10955 10957 10959 10962 10964 10965 10965 10966 10967 10967 10968 10969 10971 10973 10974 10974 10974 10975 10974 10974 10974 10975 10976 10977 10978 10980 10981 10981 10981
10813 10812 10810 10809 10808 10807 10808 10809 10811 10813 10816 10820 10823 10827 10830 10834 10839 10844 10846 10848 10851 10852 10852 10854 10857 10860 10864 10868 10872 10874 10876 10877 10880 10883 10887 10891 10896 10902 10906 10909 10910 10911 10915 10921 10925 10928 10930 10933 10934 10934 10933 10936 10940 10942 10945 10948 10951 10953 10955 10958 10960 10961 10962 10962 10964 10964 10965 10966 10968 10969 10971 10971 10972 10972 10972 10972 10972 10973 10973 10974 10975 10976 10977 10977 10977
10805 10804 10804 10802 10801 10800 10800 10801 10802 10805 10807 10811 10815 10819 10823 10827 10831 10835 10837 10840 10842 10843 10845 10848 10852 10854 10858 10863 10868 10871 10874 10876 10877 10879 10882 10886 10890 10894 10900 10903 10903 10903 10905 10910 10916 10919 10924 10928 10930 10930 10931 10933 10936 10938 10941 10944 10947 10948 10951 10953 10956 10957 10958 10959 10960 10961 10962 10963 10964 10966 10968 10969 10969 10969 10969 10970 10971 10971 10971 10971 10972 10972 10973 10973 10974
10798 10797 10796 10795 10794 10793 10793 10793 10794 10796 10799 10802 10806 10811 10815 10819 10823 10825 10827 10831 10834 10836 10838 10842 10846 10849 10852 10857 10860 10863 10867 10871 10872 10874 10876 10879 10882 10887 10892 10895 10896 10897 10899 10901 10904 10909 10917 10923 10926 10927 10927 10929 10932 10934 10936 10940 10942 10944 10946 10949 10951 10953 10955 10956 10957 10958 10959 10960 10960 10962 10964 10965 10965 10966 10966 10967 10968 10969 10968 10967 10968 10968 10969 10969 10969
10790 10789 10789 10788 10787 10786 10786 10786 10786 10788 10791 10794 10798 10802 10807 10811 10814 10815 10817 10822 10826 10829 10832 10837 10841 10844 10846 10849 10851 10854 10858 10862 10865 10868 10870 10872 10875 10880 10885 10888 10890 10893 10895 10896 10899 10904 10910 10916 10919 10921 10923 10926 10928 10930 10932 10935 10938 10939 10941 10944 10946 10949 10951 10952 10953 10954 10955 10956 10957 10958 10959 10961 10962 10963 10963 10964 10965 10966 10965 10964 10964 10965 10966 10965 10966
10782 10781 10780 10780 10779 10779 10779 10779 10779 10780 10782 10786 10789 10793 10798 10802 10805 10806 10809 10813 10817 10821 10825 10829 10832 10837 10840 10842 10844 10847 10851 10855 10858 10861 10864 10866 10870 10876 10880 10882 10885 10887 10890 10894 10897 10901 10905 10909 10912 10916 10918 10921 10923 10925 10927 10930 10932 10933 10936 10940 10942 10944 10946 10948 10949 10951 10952 10952 10953 10954 10955 10956 10958 10959 10960 10961 10962 10962 10962 10962 10962 10962 10962 10962 10963
10773 10772 10771 10770 10770 10771 10771 10771 10771 10771 10773 10776 10780 10784 10788 10792 10795 10797 10801 10805 10808 10812 10816 10820 10825 10831 10835 10837 10839 10842 10846 10849 10852 10854 10856 10860 10865 10871 10874 10877 10880 10882 10886 10889 10893 10896 10899 10903 10907 10911 10914 10916 10918 10921 10923 10925 10927 10930 10934 10937 10938 10940 10941 10943 10944 10946 10947 10948 10950 10950 10950 10952 10954 10956 10957 10957 10958 10959 10959 10958 10958 10958 10958 10959 10960
10763 10761 10760 10760 10759 10760 10761 10761 10762 10762 10763 10766 10769 10773 10778 10781 10784 10787 10792 10797 10800 10803 10808 10813 10820 10826 10829 10829 10832 10837 10841 10843 10845 10847 10850 10855 10861 10865 10869 10872 10875 10878 10881 10884 10887 10891 10895 10898 10902 10906 10909 10911 10914 10916 10918 10920 10923 10926 10931 10933 10933 10935 10937 10938 10939 10940 10942 10944 10945 10945 10946 10948 10951 10952 10952 10953 10954 10955 10955 10955 10955 10955 10954 10955 10955
10752 10750 10749 10748 10747 10748 10748 10749 10750 10751 10752 10755 10758 10762 10767 10771 10774 10778 10782 10787 10791 10795 10800 10806 10813 10820 10823 10822 10825 10831 10835 10837 10839 10841 10845 10851 10856 10859 10863 10867 10870 10873 10875 10878 10882 10886 10890 10893 10897 10900 10903 10906 10908 10911 10913 10916 10918 10921 10924 10926 10928 10930 10932 10933 10934 10935 10937 10938 10939 10939 10942 10944 10946 10947 10947 10948 10949 10950 10951 10951 10951 10951 10951 10951 10951
10742 10740 10738 10736 10734 10735 10735 10736 10737 10739 10741 10744 10746 10750 10755 10759 10763 10768 10773 10777 10782 10787 10793 10799 10805 10811 10814 10815 10818 10824 10828 10830 10833 10836 10840 10845 10850 10854 10858 10862 10866 10868 10869 10873 10877 10881 10884 10888 10891 10895 10898 10900 10903 10905 10908 10911 10913 10915 10918 10920 10923 10925 10927 10927 10928 10929 10931 10932 10932 10935 10937 10939 10940 10941 10943 10943 10944 10945 10946 10947 10947 10947 10947 10946 10946
10731 10729 10727 10725 10723 10722 10723 10723 10725 10726 10729 10731 10734 10737 10741 10746 10751 10757 10763 10768 10773 10778 10784 10790 10795 10798 10801 10805 10810 10816 10821 10824 10827 10831 10835 10839 10844 10849 10854 10858 10861 10863 10864 10867 10871 10875 10878 10882 10885 10889 10892 10894 10897 10900 10903 10906 10909 10911 10913 10916 10918 10919 10921 10922 10923 10924 10925 10926 10928 10930 10932 10933 10934 10937 10938 10939 10939 10940 10941 10942 10942 10942 10942 10942 10941
10723 10720 10717 10715 10713 10711 10711 10711 10713 10715 10717 10720 10722 10725 10729 10734 10740 10747 10753 10759 10765 10770 10775 10781 10785 10788 10791 10796 10803 10809 10814 10819 10822 10825 10829 10834 10839 10844 10849 10853 10856 10858 10858 10861 10865 10868 10871 10875 10878 10882 10886 10888 10891 10895 10898 10901 10904 10907 10909 10911 10912 10914 10916 10917 10918 10918 10919 10921 10923 10925 10926 10928 10930 10932 10933 10934 10935 10935 10936 10937 10937 10937 10936 10936 10936
10714 10711 10708 10705 10704 10702 10701 10701 10703 10704 10707 10709 10712 10715 10718 10723 10730 10737 10743 10749 10755 10761 10766 10771 10776 10780 10785 10791 10798 10804 10810 10814 10817 10821 10825 10829 10834 10839 10844 10849 10851 10853 10854 10856 10858 10860 10864 10867 10870 10875 10879 10883 10886 10889 10893 10896 10899 10901 10903 10905 10907 10909 10910 10912 10913 10913 10914 10916 10919 10920 10922 10924 10926 10928 10929 10930 10930 10931 10931 10931 10931 10931 10931 10931 10931
10706 10703 10701 10698 10696 10695 10694 10693 10694 10696 10698 10700 10703 10705 10708 10713 10720 10726 10731 10736 10742 10749 10755 10760 10766 10772 10779 10787 10795 10801 10806 10810 10813 10818 10821 10825 10829 10834 10839 10843 10845 10847 10849 10850 10851 10853 10856 10859 10863 10867 10872 10876 10880 10883 10887 10890 10892 10895 10897 10900 10902 10903 10905 10906 10908 10909 10910 10912 10913 10915 10917 10918 10920 10922 10924 10925 10925 10926 10926 10926 10926 10926 10925 10925 10925
10699 10696 10694 10692 10690 10689 10688 10687 10688 10689 10691 10693 10695 10698 10701 10705 10710 10715 10720 10725 10730 10737 10743 10750 10756 10764 10773 10781 10789 10795 10801 10806 10811 10814 10817 10820 10824 10829 10833 10836 10839 10842 10844 10844 10843 10844 10848 10852 10856 10860 10864 10868 10872 10876 10880 10883 10886 10888 10890 10893 10896 10898 10899 10901 10903 10905 10906 10907 10908 10910 10911 10912 10914 10916 10918 10919 10919 10920 10920 10920 10920 10920 10920 10920 10920
10693 10690 10688 10686 10684 10683 10682 10682 10682 10683 10684 10686 10688 10691 10694 10697 10701 10707 10712 10717 10722 10728 10734 10741 10749 10757 10766 10774 10782 10790 10797 10803 10806 10810 10813 10817 10821 10825 10828 10832 10835 10836 10838 10838 10836 10836 10840 10845 10849 10853 10857 10861 10865 10869 10873 10876 10879 10881 10884 10886 10889 10891 10894 10896 10898 10899 10901 10902 10903 10904 10905 10907 10908 10910 10911 10912 10912 10913 10913 10913 10914 10914 10914 10914 10915
10689 10686 10684 10682 10680 10679 10678 10677 10677 10678 10678 10680 10682 10684 10687 10690 10694 10698 10703 10707 10713 10720 10727 10734 10742 10750 10758 10767 10776 10784 10790 10795 10800 10807 10812 10815 10818 10821 10824 10828 10830 10831 10832 10832 10830 10831 10836 10841 10844 10847 10851 10855 10859 10863 10866 10869 10872 10875 10877 10878 10881 10884 10887 10890 10892 10894 10895 10896 10898 10899 10900 10901 10902 10903 10904 10905 10906 10906 10907 10907 10908 10908 10908 10908 10908
10685 10683 10681 10679 10677 10676 10675 10674 10673 10673 10674 10675 10676 10678 10681 10683 10687 10691 10694 10697 10703 10711 10719 10727 10735 10743 10751 10759 10768 10775 10779 10783 10790 10799 10807 10812 10815 10817 10820 10823 10825 10826 10827 10827 10827 10829 10834 10837 10839 10842 10846 10849 10853 10857 10860 10863 10865 10867 10870 10872 10874 10877 10880 10883 10885 10888 10889 10891 10892 10893 10894 10895 10896 10897 10898 10899 10899 10900 10901 10901 10902 10902 10902 10901 10901
10681 10679 10677 10676 10674 10673 10672 10671 10670 10669 10669 10670 10670 10672 10674 10677 10679 10683 10687 10691 10696 10703 10711 10719 10729 10736 10743 10752 10760 10767 10772 10775 10779 10785 10795 10804 10809 10811 10814 10817 10819 10821 10822 10823 10824 10827 10829 10831 10834 10837 10840 10843 10847 10850 10853 10856 10858 10861 10863 10865 10868 10871 10874 10876 10879 10881 10883 10885 10886 10887 10888 10889 10890 10891 10891 10892 10892 10893 10894 10894 10895 10894 10894 10894 10894